Eships Agamid — ZDHS9 — position and weather

sailwx.info

Track history (hours):
 
Tides and Currents Weather Stations Pressure Air Temp Water Temp Dewpoint Dewpoint Depression Visibility Wind Speed Wind Dir Waves Ship Positions

Eships Agamid

Last reported at 2014-Jul-22 22:23 UTC. Time now 2014-Jul-23 19:45 UTC.
Position N 47°09' W 002°25'.

Length 128 m; draft 6 m.

Type: Tanker. MMSI: 236355000.

Date/timePositionNaut miles runAvg speedWind from/ knotsBaromVisibWave heightAir tempDewpointWater temp
2014-Jul-22 22:23N 47°09' W 002°25'0 0.0
2014-Jul-22 17:26N 47°09' W 002°26'0 0.0
2014-Jul-22 03:14N 47°09' W 002°26'0 0.1
2014-Jul-22 02:32N 47°09' W 002°26'7 0.7
2014-Jul-21 16:32N 47°03' W 002°30'4812.0
2014-Jul-21 12:32N 47°24' W 003°34'1512.5
2014-Jul-21 11:21N 47°38' W 003°41'911.6
2014-Jul-21 10:34N 47°40' W 003°28'6 5.5
2014-Jul-21 09:31N 47°44' W 003°21'0 0.0
2014-Jul-21 08:31N 47°44' W 003°21'0 0.0
2014-Jul-21 07:31N 47°44' W 003°21'0 0.0
2014-Jul-21 06:31N 47°44' W 003°21'0 0.0
2014-Jul-21 05:31N 47°44' W 003°21'0 0.0
2014-Jul-21 04:31N 47°44' W 003°21'0 0.0
2014-Jul-21 03:31N 47°44' W 003°21'0 0.0
2014-Jul-21 02:34N 47°44' W 003°21'0 0.0
2014-Jul-21 01:33N 47°44' W 003°21'0 0.0
2014-Jul-21 00:34N 47°44' W 003°21'0 0.0
2014-Jul-20 23:33N 47°44' W 003°21'0 0.0
2014-Jul-20 22:33N 47°44' W 003°21'0 0.0
2014-Jul-20 21:33N 47°44' W 003°21'0 0.0
2014-Jul-20 20:34N 47°44' W 003°21'0 0.0
2014-Jul-20 19:33N 47°44' W 003°21'0 0.0
2014-Jul-20 18:33N 47°44' W 003°21'0 0.0
2014-Jul-20 17:34N 47°44' W 003°21'0 0.0
2014-Jul-20 16:34N 47°44' W 003°21'0 0.0
2014-Jul-20 15:33N 47°44' W 003°21'0 0.0
2014-Jul-20 14:33N 47°44' W 003°21'0 0.0
2014-Jul-20 13:33N 47°44' W 003°21'0 0.0
2014-Jul-20 12:34N 47°44' W 003°21'0 0.0
2014-Jul-20 11:33N 47°44' W 003°21'0 0.3
2014-Jul-20 10:33N 47°44' W 003°22'7 6.9
2014-Jul-20 09:33N 47°41' W 003°31'10 8.2
2014-Jul-20 08:23N 47°34' W 003°42'1012.1
2014-Jul-20 07:31N 47°25' W 003°35'51 1.1
2014-Jul-18 08:26N 47°08' W 002°24'0 0.0
2014-Jul-18 07:15N 47°08' W 002°24'0 0.0
2014-Jul-18 03:26N 47°08' W 002°24'0 0.0
2014-Jul-18 01:32N 47°08' W 002°24'0 0.0
2014-Jul-18 00:33N 47°08' W 002°24'0 0.0
2014-Jul-17 23:33N 47°08' W 002°24'0 0.1
2014-Jul-17 22:33N 47°08' W 002°24'0 0.3
2014-Jul-17 21:33N 47°07' W 002°24'1010.4
2014-Jul-17 20:33N 47°01' W 002°36'1312.4
2014-Jul-17 19:30N 46°48' W 002°41'1313.3
2014-Jul-17 18:33N 46°37' W 002°33'1313.2
2014-Jul-17 17:33N 46°26' W 002°22'1212.1
2014-Jul-17 16:33N 46°17' W 002°11'1212.3
2014-Jul-17 15:34N 46°07' W 002°01'3013.1
2014-Jul-17 13:18N 45°43' W 001°35'1013.9
2014-Jul-17 12:33N 45°37' W 001°24'11 0.3
2014-Jul-16 04:32N 45°39' W 001°09'12 3.1
2014-Jul-16 00:30N 45°33' W 001°24'3 0.3
2014-Jul-15 14:20N 45°35' W 001°25'3713.3
2014-Jul-15 11:32N 46°05' W 001°58'1413.3
2014-Jul-15 10:30N 46°16' W 002°10'1313.4
2014-Jul-15 09:33N 46°26' W 002°22'1513.7
2014-Jul-15 08:29N 46°37' W 002°35'66 1.8
2014-Jul-13 19:19N 47°22' W 003°47'6313.0
2014-Jul-13 14:32N 47°56' W 005°04'  
Track history (hours):
 
Tides and Currents Weather Stations Pressure Air Temp Water Temp Dewpoint Dewpoint Depression Visibility Wind Speed Wind Dir Waves Ship Positions

Eships Agamid

Last reported at 2014-Jul-22 22:23 UTC. Time now 2014-Jul-23 19:45 UTC.
Position N 47°09' W 002°25'.

Length 128 m; draft 6 m.

Type: Tanker. MMSI: 236355000.

Date/timePositionNaut miles runAvg speedWind from/ knotsBaromVisibWave heightAir tempDewpointWater temp
2014-Jul-22 22:23N 47°09' W 002°25'0 0.0
2014-Jul-22 17:26N 47°09' W 002°26'0 0.0
2014-Jul-22 03:14N 47°09' W 002°26'0 0.1
2014-Jul-22 02:32N 47°09' W 002°26'7 0.7
2014-Jul-21 16:32N 47°03' W 002°30'4812.0
2014-Jul-21 12:32N 47°24' W 003°34'1512.5
2014-Jul-21 11:21N 47°38' W 003°41'911.6
2014-Jul-21 10:34N 47°40' W 003°28'6 5.5
2014-Jul-21 09:31N 47°44' W 003°21'0 0.0
2014-Jul-21 08:31N 47°44' W 003°21'0 0.0
2014-Jul-21 07:31N 47°44' W 003°21'0 0.0
2014-Jul-21 06:31N 47°44' W 003°21'0 0.0
2014-Jul-21 05:31N 47°44' W 003°21'0 0.0
2014-Jul-21 04:31N 47°44' W 003°21'0 0.0
2014-Jul-21 03:31N 47°44' W 003°21'0 0.0
2014-Jul-21 02:34N 47°44' W 003°21'0 0.0
2014-Jul-21 01:33N 47°44' W 003°21'0 0.0
2014-Jul-21 00:34N 47°44' W 003°21'0 0.0
2014-Jul-20 23:33N 47°44' W 003°21'0 0.0
2014-Jul-20 22:33N 47°44' W 003°21'0 0.0
2014-Jul-20 21:33N 47°44' W 003°21'0 0.0
2014-Jul-20 20:34N 47°44' W 003°21'0 0.0
2014-Jul-20 19:33N 47°44' W 003°21'0 0.0
2014-Jul-20 18:33N 47°44' W 003°21'0 0.0
2014-Jul-20 17:34N 47°44' W 003°21'0 0.0
2014-Jul-20 16:34N 47°44' W 003°21'0 0.0
2014-Jul-20 15:33N 47°44' W 003°21'0 0.0
2014-Jul-20 14:33N 47°44' W 003°21'0 0.0
2014-Jul-20 13:33N 47°44' W 003°21'0 0.0
2014-Jul-20 12:34N 47°44' W 003°21'0 0.0
2014-Jul-20 11:33N 47°44' W 003°21'0 0.3
2014-Jul-20 10:33N 47°44' W 003°22'7 6.9
2014-Jul-20 09:33N 47°41' W 003°31'10 8.2
2014-Jul-20 08:23N 47°34' W 003°42'1012.1
2014-Jul-20 07:31N 47°25' W 003°35'51 1.1
2014-Jul-18 08:26N 47°08' W 002°24'0 0.0
2014-Jul-18 07:15N 47°08' W 002°24'0 0.0
2014-Jul-18 03:26N 47°08' W 002°24'0 0.0
2014-Jul-18 01:32N 47°08' W 002°24'0 0.0
2014-Jul-18 00:33N 47°08' W 002°24'0 0.0
2014-Jul-17 23:33N 47°08' W 002°24'0 0.1
2014-Jul-17 22:33N 47°08' W 002°24'0 0.3
2014-Jul-17 21:33N 47°07' W 002°24'1010.4
2014-Jul-17 20:33N 47°01' W 002°36'1312.4
2014-Jul-17 19:30N 46°48' W 002°41'1313.3
2014-Jul-17 18:33N 46°37' W 002°33'1313.2
2014-Jul-17 17:33N 46°26' W 002°22'1212.1
2014-Jul-17 16:33N 46°17' W 002°11'1212.3
2014-Jul-17 15:34N 46°07' W 002°01'3013.1
2014-Jul-17 13:18N 45°43' W 001°35'1013.9
2014-Jul-17 12:33N 45°37' W 001°24'11 0.3
2014-Jul-16 04:32N 45°39' W 001°09'12 3.1
2014-Jul-16 00:30N 45°33' W 001°24'3 0.3
2014-Jul-15 14:20N 45°35' W 001°25'3713.3
2014-Jul-15 11:32N 46°05' W 001°58'1413.3
2014-Jul-15 10:30N 46°16' W 002°10'1313.4
2014-Jul-15 09:33N 46°26' W 002°22'1513.7
2014-Jul-15 08:29N 46°37' W 002°35'66 1.8
2014-Jul-13 19:19N 47°22' W 003°47'6313.0
2014-Jul-13 14:32N 47°56' W 005°04'  

Dump ship's entire track history